Location: Neuvy Saint Sepulchre
(46.5953°N, 1.8122°E)
Time: 07:20:17
(UTC+01:00)

ISS - Pass Details

Date: 29 November 2023
Orbit: 416 x 417 km, 51.6° (Epoch: 01 December)

Event Time Altitude Azimuth Distance (km) Brightness Sun altitude
Rises 18:13:54 0° 291° (WNW) 2,360 0.9 -11.0°
Reaches altitude 10° 18:16:06 10° 300° (WNW) 1,497 -0.4 -11.4°
Maximum altitude 18:19:14 36° 9° (N) 676 -3.0 -11.9°
Enters shadow 18:21:00 21° 65° (ENE) 1,008 -2.5 -12.2°
